Flag for U.S.A. Weather past 2 weeks in Fort Bragg, California, U.S.A.

Now
68 °F

Sunny.


Feels Like: 68 °F
Forecast: 57 / 69 °F
Wind: 3 mph from North

Location: Ukiah Municipal

Current Time: Sep 30, 2014 at 11:51:55 AM

Latest Report: Sep 30, 2014 at 10:56 AM


Visibility: 10 mi

Pressure: 29.95 "Hg

Humidity: 57%

Dew point: 52 °F

Location of Fort BraggLocation

Historic Weather in Fort Bragg — Graph

°F

Fort Bragg temperature yesterday

Maximum temperature yesterday: 83 °F (at 2:56 PM)
Minimum temperature yesterday: 53 °F (at 4:56 AM)
Average temperature yesterday: 65 °F

Past Weeks' High & Low Weather Summary

 TemperatureHumidityPressure
High91 °F (Sep 19, 2:56 PM)97% (Sep 18, 3:56 AM)30.02 "Hg (Sep 18, 3:56 AM)
Low50 °F (Sep 30, 6:56 AM)16% (Sep 16, 2:56 PM)29.67 "Hg (Sep 17, 4:56 PM)
Average67 °F67%29.89 "Hg
* Reported Sep 15 9:56 AM — Sep 30 9:56 AM, Fort Bragg, Weather by CustomWeather, © 2014

Note: Actual official high and low records may vary slightly from our data, if they occured in-between our weather recording intervals... More about our weather records

Advertising

Fort Bragg weather history for previous 24 hours

 ConditionsComfort  
Time TempWeatherWind HumidityBarometerVisibility
9:56 AM
Sep 30
62 °FSunny.No wind67%29.97 "Hg10 mi
8:56 AM56 °FSunny.No wind84%29.97 "Hg10 mi
7:56 AM51 °FClear.No wind92%29.97 "Hg10 mi
6:56 AM50 °FClear.No wind89%29.96 "Hg10 mi
5:56 AM52 °FClear.3 mph86%29.96 "Hg10 mi
4:56 AM52 °FClear.No wind89%29.95 "Hg10 mi
3:56 AM54 °FClear.No wind86%29.96 "Hg10 mi
2:56 AM53 °FClear.No wind89%29.96 "Hg10 mi
1:56 AM56 °FClear.No wind81%29.97 "Hg10 mi
12:56 AM55 °FClear.No wind83%29.97 "Hg10 mi
11:56 PM
Sep 29
58 °FClear.3 mph75%29.98 "Hg10 mi
10:56 PM61 °FClear.5 mph67%29.99 "Hg10 mi
9:56 PM63 °FClear.6 mph63%29.99 "Hg10 mi
8:56 PM65 °FClear.7 mph52%29.98 "Hg10 mi
7:56 PM67 °FSunny.10 mph42%29.96 "Hg10 mi
6:56 PM70 °FSunny.10 mph44%29.95 "Hg10 mi
5:56 PM75 °FSunny.6 mph42%29.93 "Hg10 mi
4:56 PM80 °FSunny.9 mph29%29.91 "Hg10 mi
3:56 PM83 °FSunny.9 mph34%29.92 "Hg10 mi
2:56 PM83 °FSunny.12 mph33%29.92 "Hg10 mi
1:56 PM82 °FSunny.12 mph33%29.93 "Hg10 mi
12:56 PM79 °FSunny.No wind38%29.95 "Hg10 mi
11:56 AM74 °FSunny.3 mph46%29.97 "Hg10 mi
Weather by CustomWeather, © 2014

See weather overviewHow to use our weather pages